TimeEDT,TemperatureF,Dew PointF,Humidity,Sea Level PressureIn,VisibilityMPH,Wind Direction,Wind SpeedMPH,Gust SpeedMPH,PrecipitationIn,Events,Conditions,WindDirDegrees,DateUTC
12:53 AM,64.9,63.0,93,29.65,6.0,ENE,6.9,-,0.11,Rain,Light Rain,70,2013-06-13 04:53:00
1:53 AM,63.0,63.0,100,29.62,4.0,NE,5.8,-,0.12,Rain,Rain,40,2013-06-13 05:53:00
2:14 AM,62.6,62.6,100,29.61,3.0,NNE,6.9,-,0.08,Rain,Rain,20,2013-06-13 06:14:00
2:34 AM,62.6,62.6,100,29.61,3.0,ENE,3.5,-,0.16,Rain,Rain,60,2013-06-13 06:34:00
2:48 AM,62.6,62.6,100,29.60,2.5,Calm,Calm,-,0.26,Rain,Heavy Rain,0,2013-06-13 06:48:00
2:53 AM,63.0,63.0,100,29.59,2.5,Calm,Calm,-,0.28,Rain,Rain,0,2013-06-13 06:53:00
3:25 AM,62.6,62.6,100,29.58,4.0,North,3.5,-,0.18,Rain,Rain,360,2013-06-13 07:25:00
3:53 AM,63.0,62.1,97,29.57,4.0,North,5.8,-,0.25,Rain,Rain,10,2013-06-13 07:53:00
4:18 AM,62.6,62.6,100,29.56,5.0,NNE,11.5,-,0.02,Rain,Light Rain,30,2013-06-13 08:18:00
4:53 AM,63.0,61.0,93,29.56,5.0,NNE,10.4,-,0.03,Rain,Light Rain,30,2013-06-13 08:53:00
5:09 AM,62.6,62.6,100,29.57,5.0,NNE,9.2,17.3,0.02,Rain,Light Rain,20,2013-06-13 09:09:00
5:53 AM,63.0,62.1,97,29.60,5.0,North,9.2,-,0.05,Rain,Light Rain,360,2013-06-13 09:53:00
6:15 AM,64.4,62.6,94,29.61,6.0,North,6.9,-,0.01,Rain,Light Rain,360,2013-06-13 10:15:00
6:27 AM,64.4,62.6,94,29.62,6.0,North,10.4,-,0.02,Rain,Light Rain,360,2013-06-13 10:27:00
6:42 AM,64.4,60.8,88,29.63,8.0,North,12.7,18.4,0.03,Rain,Light Rain,10,2013-06-13 10:42:00
6:53 AM,63.0,60.1,90,29.63,9.0,North,10.4,-,0.04,Rain,Light Rain,10,2013-06-13 10:53:00
7:53 AM,62.1,57.9,86,29.66,8.0,NNW,5.8,-,0.01,Rain,Light Rain,340,2013-06-13 11:53:00
8:53 AM,63.0,57.9,84,29.68,10.0,North,10.4,-,0.01,,Overcast,360,2013-06-13 12:53:00
9:53 AM,64.9,59.0,81,29.71,10.0,Variable,5.8,-,N/A,,Overcast,0,2013-06-13 13:53:00
10:53 AM,70.0,59.0,68,29.70,10.0,North,12.7,20.7,N/A,,Clear,10,2013-06-13 14:53:00
11:53 AM,73.9,57.0,55,29.73,10.0,North,11.5,17.3,N/A,,Clear,10,2013-06-13 15:53:00
12:53 PM,75.9,55.0,48,29.73,10.0,North,11.5,23.0,N/A,,Partly Cloudy,10,2013-06-13 16:53:00
1:53 PM,77.0,54.0,45,29.75,10.0,North,12.7,21.9,N/A,,Partly Cloudy,360,2013-06-13 17:53:00
2:53 PM,78.1,55.0,45,29.76,10.0,North,16.1,24.2,N/A,,Scattered Clouds,360,2013-06-13 18:53:00
3:53 PM,78.1,55.0,45,29.78,10.0,North,11.5,23.0,N/A,,Scattered Clouds,350,2013-06-13 19:53:00
4:53 PM,77.0,55.0,47,29.79,10.0,North,15.0,21.9,N/A,,Scattered Clouds,10,2013-06-13 20:53:00
5:53 PM,77.0,52.0,42,29.81,10.0,North,13.8,24.2,N/A,,Partly Cloudy,10,2013-06-13 21:53:00
6:53 PM,75.9,52.0,43,29.81,10.0,NNE,16.1,25.3,N/A,,Clear,20,2013-06-13 22:53:00
7:53 PM,73.9,51.1,45,29.84,10.0,North,17.3,21.9,N/A,,Clear,360,2013-06-13 23:53:00
8:53 PM,71.1,53.1,53,29.86,10.0,NNE,8.1,18.4,N/A,,Clear,20,2013-06-14 00:53:00
9:53 PM,70.0,52.0,53,29.88,10.0,North,10.4,-,N/A,,Clear,10,2013-06-14 01:53:00
10:53 PM,68.0,53.1,59,29.90,10.0,North,9.2,-,N/A,,Partly Cloudy,360,2013-06-14 02:53:00
11:53 PM,66.9,53.1,61,29.91,10.0,North,8.1,-,N/A,,Clear,10,2013-06-14 03:53:00